This demonstration page uses our WeatherBlox Daily Observations layout. Learn more.

41.55636, -103.73856

Hourly Observations for July 26, 2016

Temp ( °F °C ) Dew Point ( °F °C ) Humidity (%) Winds ( mph kmh ) Pressure ( in mb ) Visibility ( mi km ) Precip ( " mm )
12:53 am 00:53 Clear 69 20.6 62 16.7 78 78 E 10 17 29.93 1014 10 16.0934 0 0
1:53 am 01:53 Clear 68 20 61 16.1 78 78 ENE 8 13 29.91 1013 10 16.0934 0 0
2:53 am 02:53 Clear 67 19.4 61 16.1 81 81 ESE 10 17 29.89 1012 10 16.0934 0 0
3:53 am 03:53 Clear 65 18.3 61 16.1 87 87 E 8 13 29.89 1012 10 16.0934 0 0
4:53 am 04:53 Clear 64 17.8 61 16.1 90 90 ESE 8 13 29.9 1012 10 16.0934 0 0
5:53 am 05:53 Sunny with Mist and Fog 63 17.2 61 16.1 93 93 ESE 9 15 29.9 1012 6 9.65604 0 0
6:53 am 06:53 Sunny 65 18.3 61 16.1 87 87 ESE 12 19 29.91 1013 9 14.48406 0 0
7:53 am 07:53 Sunny 69 20.6 60 15.6 73 73 SE 9 15 29.91 1013 10 16.0934 0 0
8:53 am 08:53 Sunny 74 23.3 58 14.4 57 57 SE 9 15 29.91 1013 10 16.0934 0 0
9:53 am 09:53 Sunny 82 27.8 55 12.8 40 40 SSE 7 11 29.89 1012 10 16.0934 0 0
10:53 am 10:53 Sunny 85 29.4 56 13.3 37 37 NE 6 9 29.9 1013 10 16.0934 0 0
11:53 am 11:53 Sunny 87 30.6 54 12.2 32 32 N 6 9 29.89 1012 10 16.0934 0 0
12:53 pm 12:53 Sunny 90 32.2 55 12.8 31 31 VRB 3 6 29.87 1012 10 16.0934 0 0
1:53 pm 13:53 Sunny 91 32.8 53 11.7 27 27 VRB 3 6 29.85 1011 10 16.0934 0 0
2:53 pm 14:53 Sunny 93 33.9 52 11.1 25 25 E 6 9 29.84 1010 10 16.0934 0 0
3:53 pm 15:53 Sunny 93 33.9 54 12.2 27 27 S 9 15 29.83 1010 10 16.0934 0 0
4:53 pm 16:53 Sunny with Nearby Thunderstorms 88 31.1 58 14.4 36 36 SSW 5 7 29.83 1010 10 16.0934 0 0
5:02 pm 17:02 Sunny 88 31 57 14 35 35 S 5 7 29.62 1003 10 16.0934 0 0
5:34 pm 17:34 Sunny with Nearby Thunderstorms 84 29 61 16 45 45 N 7 11 29.68 1005 10 16.0934 0 0
5:49 pm 17:49 Partly Cloudy 82 28 61 16 48 48 Calm 29.71 1006 9 14.48406 0 0
5:53 pm 17:53 Partly Cloudy with Nearby Thunderstorms 85 29.4 58 14.4 40 40 SSW 9 15 29.83 1010 9 14.48406 0 0
6:14 pm 18:14 Mostly Cloudy with Nearby Thunderstorms 91 33 34 1 13 13 undefined N/A 29.59 1002 10 16.0934 0 0
6:37 pm 18:37 Windy with Storms Likely 85 29.4 43 6.1 23 23 SSW 24 39 29.71 1006 10 16.0934 0 0.0254
6:48 pm 18:48 Mostly Cloudy with Light Rain 88 31 37 3 17 17 S 12 19 29.65 1004 10 16.0934 0 0
6:53 pm 18:53 Partly Cloudy 88 31.1 37 2.8 16 16 SSW 15 24 29.83 1010 10 16.0934 0 0.0254
7:53 pm 19:53 Sunny 83 28.3 45 7.2 26 26 S 6 9 29.84 1010 10 16.0934 0 0
8:53 pm 20:53 Mostly Clear 86 30 40 4.4 20 20 W 6 9 29.81 1010 10 16.0934 0 0
9:19 pm 21:19 Mostly Clear 74 23.3 57 13.9 56 56 NNE 20 31 29.85 1011 10 16.0934 0 0
9:53 pm 21:53 Clear 72 22.2 56 13.3 57 57 NE 14 22 29.92 1013 10 16.0934 0 0
10:53 pm 22:53 Clear 67 19.4 57 13.9 71 71 NNW 8 13 29.89 1012 10 16.0934 0 0
11:53 pm 23:53 Clear 67 19.4 56 13.3 68 68 SSW 8 13 29.93 1013 10 16.0934 0 0

Powered by AerisWeather